Location: Antioch Baptist Church
(32.6696°N, 85.7327°W)
Time: 10:01:58
(UTC+00:00)

Cosmos-2242 - Pass Details

Date: 03 November 2020
Orbit: 592 x 616 km, 82.5° (Epoch: 26 November)

Event Time Altitude Azimuth Distance (km) Brightness Sun altitude
Rises 00:22:19 0° 190° (S) 2,814 6.6 -19.7°
Reaches altitude 10° 00:24:31 10° 192° (SSW) 1,919 5.8 -20.2°
Maximum altitude 00:28:44 70° 276° (W) 634 3.2 -21.0°
Drops below altitude 10° 00:33:01 10° 1° (N) 1,944 5.5 -21.9°
Sets 00:35:15 0° 4° (N) 2,854 6.4 -22.4°
